{"data":{"norad_id":57012,"intl_designator":"2023-085J","name":"2023-085J","alt_names":[],"object_type":"PAYLOAD","status":"ACTIVE","operator":null,"country":"PRC","launch_date":"2023-06-15","launch_site_code":"TAISC","launch_vehicle":null,"mission":null,"orbit_class":"UNKNOWN","rcs_meters":null,"size_class":null,"mass_kg":null,"dimensions":null,"purposes":[],"wikipedia_slug":null,"has_3d_model":false,"image_url":null,"decayed_at":null,"tle_current":{"epoch":"2026-05-25T04:51:18.585216Z","epoch_age_seconds":53468,"freshness":"FRESH","line1":"1 57012U 23085J   26145.20229844  .00015023  00000+0  46189-3 0  9993","line2":"2 57012  97.4911 257.3448 0007603 117.0934 243.1085 15.33757960163247","mean_motion":15.3375796,"eccentricity":0.0007603,"inclination_deg":97.4911,"raan_deg":257.3448,"arg_perigee_deg":117.0934,"mean_anomaly_deg":243.1085,"bstar":0.00046189,"rev_number":16324,"period_min":93.88704329854,"perigee_km":459.4096418356,"apogee_km":469.81472624485,"semimajor_km":6842.7491840402,"source":"CELESTRAK","updated_at":"2026-05-25T13:37:59.792944Z"}}}